User: anonymous   Login
Location: Cronhütte
(48.9135°N, 9.6869°E)
Time: 07:19:47
(UTC+00:00)
Language:

H-2A R/B - Orbit

View from above orbital plane
View from above orbital plane
View from above satellite
View from above satellite

Ground track
Ground track

The orbit data is extracted from the following two-line orbital elements,

1 38341U 12025E   24203.82302348  .00005368  00000-0  56457-3 0  9992
2 38341  98.4215 117.5449 0051754  95.6437 265.0683 14.88894440659344
Epoch (UTC): 21 July 2024 19:45:09
Eccentricity: 0.0051754
inclination: 98.4215°
perigee height: 565 km
apogee height: 637 km
right ascension of ascending node: 117.5449°
argument of perigee: 95.6437°
revolutions per day: 14.88894440
mean anomaly at epoch: 265.0683°
orbit number at epoch: 65934

The dashed part of the orbit path shows where the satellite is in the earth's shadow,  

DLR